+ View the NASA Portal
+ Center for Near-Earth Object Studies
IMPORTANT:
The SSD Announcement email list is now available. Major changes are coming in the near future, including possible hostname and/or URL changes. To be notified of such changes, subscribe to this email list.
Please visit
this page
for more details.
Don't show this message again
JPL Small-Body Database Browser
Search:
[
help
]
344363 (2001 XZ94)
Classification:
Main-belt Asteroid
SPK-ID:
2344363
[
Ephemeris
|
Orbit Diagram
|
Orbital Elements
|
Mission Design
|
Physical Parameters
|
Discovery Circumstances
|
Close-Approach Data
]
[ show orbit diagram ]
Orbital Elements at Epoch 2458600.5 (2019-Apr-27.0) TDB
Reference:
JPL 16
(heliocentric ecliptic J2000)
Element
Value
Uncertainty (1-sigma)
Units
e
.1370192002103174
8.1884e-08
a
3.111153578488133
3.9849e-08
au
q
2.684865803432222
2.5274e-07
au
i
29.29433935427845
9.4786e-06
deg
node
67.53567271178484
1.3254e-05
deg
peri
8.149288706165237
3.062e-05
deg
M
56.22548111646624
2.6591e-05
deg
t
p
2458287.451749113819
(2018-Jun-17.95174911)
0.00014612
TDB
period
2004.382498490002
5.49
3.8509e-05
1.054e-07
d
yr
n
.1796064375293664
3.4507e-09
deg/d
Q
3.537441353544044
4.5309e-08
au
Orbit Determination Parameters
# obs. used (total)
294
data-arc span
6303 days (17.26 yr)
first obs. used
2001-11-09
last obs. used
2019-02-11
planetary ephem.
DE431
SB-pert. ephem.
SB431-N16
condition code
0
norm. resid. RMS
.52602
source
ORB
producer
Otto Matic
solution date
2019-Jul-13 10:23:58
Additional Information
Earth MOID
= 1.70099 au
Jupiter MOID
= 1.80472 au
T_jup
= 3.008
[ show covariance matrix ]
[
Ephemeris
|
Orbit Diagram
|
Orbital Elements
|
Mission Design
|
Physical Parameters
|
Discovery Circumstances
|
Close-Approach Data
]
Physical Parameter Table
Parameter
Symbol
Value
Units
Sigma
Reference
Notes
absolute magnitude
H
15.1
n/a
MPO339098
344363 (2001 XZ94)
Discovered 2001-Dec-10 by LINEAR at Socorro
Reference:
20121128/Numbers.arc
Last Updated:
2012-12-03
[ show close-approach data ]
[
Ephemeris
|
Orbit Diagram
|
Orbital Elements
|
Mission Design
|
Physical Parameters
|
Discovery Circumstances
|
Close-Approach Data
]
2019-Dec-13 06:03 UT
(server date/time)
Site Manager:
Ryan S. Park
Webmaster
:
Alan B. Chamberlin